Location: Althorst
(53.6379°N, 10.7715°E)
Time: 11:37:29
(UTC+00:00)

SL-16 R/B - Pass Details

Date: 10 December 2019
Orbit: 840 x 849 km, 71.0° (Epoch: 19 January)

Event Time Altitude Azimuth Distance (km) Brightness Sun altitude
Rises 17:22:02 0° 187° (S) 3,396 5.6 -20.1°
Reaches altitude 10° 17:24:33 10° 181° (S) 2,466 4.8 -20.4°
Maximum altitude 17:29:54 44° 111° (ESE) 1,156 2.5 -21.2°
Enters shadow 17:30:30 43° 93° (E) 1,183 2.5 -21.3°
